period_start,C,m1,H,J0,J1,J2,J3,J4,J5,JA,JB,JC,JD,JJ,JK,JN,#
2018-07-23 00:05:00,0.00,0.44,0.00,26.67,30.60,33.62,13.64,46.71,1005.39,2013.29,3230.79,2935.97,3378.00,600.03,582.25,11.42,0000 0000 0000 0000 000000
2018-07-23 00:10:02,0.02,0.44,0.00,26.65,30.60,33.60,13.66,46.59,1005.39,2013.38,3230.31,2935.93,3377.97,599.86,582.15,11.47,0000 0000 0000 0000 000000
2018-07-23 00:15:03,0.02,0.44,0.00,26.64,30.59,33.59,13.67,46.59,1005.39,2013.55,3230.06,2935.87,3377.95,600.26,582.56,11.52,0000 0000 0000 0000 000000
2018-07-23 00:20:04,0.03,0.44,0.00,26.64,30.57,33.59,13.57,46.86,1005.39,2013.55,3229.63,2935.29,3377.36,599.80,582.04,11.57,0000 0000 0000 0000 000000
2018-07-23 00:25:06,0.09,0.45,0.00,26.62,30.57,33.57,13.60,46.55,1005.40,2013.70,3228.06,2934.20,3376.16,599.83,582.17,11.62,0000 0000 0000 0000 000000
2018-07-23 00:30:06,0.01,0.45,0.00,26.61,30.56,33.59,13.66,46.55,1005.41,2013.89,3227.97,2934.08,3376.06,599.72,582.15,11.67,0000 0000 0000 0000 000000
2018-07-23 00:35:08,0.00,0.45,0.00,26.60,30.55,33.55,13.55,47.02,1005.41,2013.93,3227.90,2934.12,3376.04,600.19,582.56,11.72,0000 0000 0000 0000 000000
2018-07-23 00:40:09,0.02,0.45,0.00,26.59,30.54,33.57,13.63,46.67,1005.54,2013.95,3227.40,2934.09,3376.01,599.98,582.45,11.77,0000 0000 0000 0000 000000
2018-07-23 00:45:10,0.00,0.45,0.00,26.60,30.52,33.55,13.67,46.63,1005.75,2013.93,3226.99,2933.99,3375.97,599.95,582.52,11.82,0000 0000 0000 0000 000000
2018-07-23 00:50:12,0.02,0.45,0.00,26.57,30.52,33.54,13.65,46.61,1005.84,2013.98,3226.47,2933.98,3375.49,599.89,582.60,11.87,0000 0000 0000 0000 000000
2018-07-23 00:55:13,-0.00,0.45,0.00,26.55,30.52,33.51,13.67,46.41,1005.85,2013.99,3226.46,2933.98,3375.63,600.33,583.09,11.92,0000 0000 0000 0000 000000
2018-07-23 01:00:15,0.00,0.45,0.00,26.55,30.50,33.51,13.74,46.98,1005.87,2013.98,3226.38,2933.98,3375.58,600.48,583.22,11.97,0000 0000 0000 0000 000000
2018-07-23 01:05:16,0.00,0.45,0.00,26.53,30.50,33.51,13.62,46.58,1005.87,2013.98,3226.25,2933.98,3375.42,599.69,582.32,12.02,0000 0000 0000 0000 000000
2018-07-23 01:10:17,-0.01,0.45,0.00,26.52,30.48,33.48,13.63,46.92,1005.88,2013.98,3226.30,2933.99,3375.33,600.14,582.85,12.07,0000 0000 0000 0000 000000
2018-07-23 01:15:18,-0.00,0.45,0.00,26.51,30.47,33.49,13.62,46.77,1005.89,2013.99,3226.33,2933.99,3375.43,599.87,582.59,12.12,0000 0000 0000 0000 000000
2018-07-23 01:20:20,-0.00,0.45,0.00,26.50,30.46,33.50,13.69,46.83,1005.88,2013.98,3226.39,2933.99,3375.34,600.03,582.89,12.17,0000 0000 0000 0000 000000
2018-07-23 01:25:21,0.01,0.45,0.00,26.50,30.45,33.47,13.64,46.72,1005.89,2013.99,3226.21,2933.99,3375.22,599.89,582.76,12.22,0000 0000 0000 0000 000000
2018-07-23 01:30:22,0.00,0.45,0.00,26.47,30.45,33.46,13.60,46.69,1005.89,2013.98,3226.04,2933.99,3375.05,599.65,582.54,12.28,0000 0000 0000 0000 000000
2018-07-23 01:35:23,0.00,0.45,0.00,26.47,30.43,33.43,13.68,46.63,1005.98,2013.99,3226.06,2933.98,3375.06,599.88,582.80,12.33,0000 0000 0000 0000 000000
2018-07-23 01:40:24,0.00,0.45,0.00,26.47,30.42,33.43,13.71,47.14,1006.06,2013.99,3226.05,2933.99,3375.08,600.12,583.19,12.38,0000 0000 0000 0000 000000
2018-07-23 01:45:25,0.00,0.45,0.00,26.45,30.42,33.41,13.58,46.92,1006.17,2013.99,3226.03,2933.99,3375.05,599.69,582.83,12.43,0000 0000 0000 0000 000000
2018-07-23 01:50:26,0.00,0.45,0.00,26.45,30.40,33.41,13.67,46.97,1006.34,2013.99,3226.02,2933.99,3375.04,599.80,582.94,12.48,0000 0000 0000 0000 000000
2018-07-23 01:55:27,0.00,0.45,0.00,26.42,30.40,33.40,13.65,46.80,1006.36,2013.98,3226.04,2933.99,3375.04,600.14,583.51,12.53,0000 0000 0000 0000 000000
2018-07-23 02:00:28,0.00,0.45,0.00,26.42,30.40,33.38,13.71,46.86,1006.36,2013.99,3226.04,2933.99,3375.09,599.82,583.19,12.58,0000 0000 0000 0000 000000
2018-07-23 02:05:30,-0.00,0.45,0.00,26.41,30.38,33.38,13.65,46.75,1006.36,2013.99,3226.10,2933.99,3375.27,599.81,583.12,12.63,0000 0000 0000 0000 000000
2018-07-23 02:10:31,0.00,0.45,0.00,26.40,30.37,33.37,13.60,46.94,1006.36,2013.99,3226.11,2934.00,3375.25,599.61,582.87,12.68,0000 0000 0000 0000 000000
2018-07-23 02:15:32,0.00,0.45,0.00,26.40,30.37,33.38,13.76,46.97,1006.37,2013.99,3226.08,2934.01,3375.24,600.42,583.71,12.73,0000 0000 0000 0000 000000
2018-07-23 02:20:33,-0.01,0.45,0.00,26.37,30.35,33.37,13.67,46.88,1006.39,2013.99,3226.37,2934.07,3375.49,600.09,583.53,12.78,0000 0000 0000 0000 000000
2018-07-23 02:25:35,0.00,0.45,0.00,26.37,30.35,33.32,13.67,46.95,1006.43,2013.99,3226.30,2934.07,3375.51,600.11,583.47,12.83,0000 0000 0000 0000 000000
2018-07-23 02:30:36,-0.01,0.45,0.00,26.37,30.34,33.33,13.67,46.83,1006.47,2014.00,3226.12,2934.15,3375.52,600.07,583.54,12.88,0000 0000 0000 0000 000000
2018-07-23 02:35:38,0.01,0.45,0.00,26.35,30.32,33.35,13.64,46.76,1006.53,2014.00,3226.09,2934.18,3375.53,600.21,583.81,12.93,0000 0000 0000 0000 000000
2018-07-23 02:40:39,-0.01,0.45,0.00,26.34,30.32,33.34,13.63,46.92,1006.52,2014.00,3226.18,2934.40,3375.68,600.18,583.71,12.98,0000 0000 0000 0000 000000
2018-07-23 02:45:41,0.01,0.45,0.00,26.33,30.31,33.33,13.68,46.90,1006.51,2014.00,3226.16,2934.39,3375.53,599.93,583.47,13.03,0000 0000 0000 0000 000000
2018-07-23 02:50:42,-0.02,0.45,0.00,26.33,30.30,33.29,13.69,46.83,1006.56,2014.00,3226.29,2934.76,3375.67,600.03,583.54,13.08,0000 0000 0000 0000 000000
2018-07-23 02:55:43,-0.01,0.45,0.00,26.32,30.30,33.30,13.72,46.89,1006.67,2014.01,3226.54,2934.94,3375.88,600.28,583.94,13.13,0000 0000 0000 0000 000000
2018-07-23 03:00:44,0.00,0.45,0.00,26.33,30.28,33.27,13.75,46.92,1006.76,2014.03,3226.56,2934.97,3375.92,600.00,583.71,13.18,0000 0000 0000 0000 000000
2018-07-23 03:05:45,-0.00,0.45,0.00,26.32,30.27,33.27,13.69,46.88,1006.80,2014.03,3226.64,2934.98,3375.93,599.83,583.55,13.23,0000 0000 0000 0000 000000
2018-07-23 03:10:47,0.01,0.45,0.00,26.32,30.27,33.27,13.72,46.96,1006.81,2014.01,3226.27,2934.95,3375.76,600.26,584.02,13.28,0000 0000 0000 0000 000000
2018-07-23 03:15:48,-0.00,0.45,0.00,26.31,30.26,33.25,13.65,47.24,1006.81,2014.01,3226.13,2934.97,3375.66,599.78,583.53,13.33,0000 0000 0000 0000 000000
2018-07-23 03:20:50,-0.00,0.45,0.00,26.31,30.25,33.24,13.69,47.22,1006.83,2014.04,3226.15,2934.98,3375.69,599.92,583.69,13.38,0000 0000 0000 0000 000000
2018-07-23 03:25:51,-0.00,0.45,0.00,26.32,30.25,33.24,13.66,47.21,1006.83,2014.06,3226.32,2934.99,3375.86,599.70,583.34,13.43,0000 0000 0000 0000 000000
2018-07-23 03:30:52,0.00,0.45,0.00,26.32,30.25,33.22,13.65,47.06,1006.76,2014.04,3226.52,2934.99,3375.89,599.85,583.63,13.48,0000 0000 0000 0000 000000
2018-07-23 03:35:54,0.00,0.45,0.00,26.32,30.23,33.21,13.62,47.02,1006.65,2014.05,3226.66,2934.98,3375.85,599.78,583.35,13.53,0000 0000 0000 0000 000000
2018-07-23 03:40:55,-0.00,0.45,0.00,26.32,30.22,33.22,13.63,46.88,1006.69,2014.03,3226.67,2934.99,3375.58,599.77,583.44,13.58,0000 0000 0000 0000 000000
2018-07-23 03:45:56,0.00,0.45,0.00,26.33,30.22,33.20,13.68,46.77,1006.76,2014.05,3226.82,2934.99,3375.65,599.70,583.43,13.63,0000 0000 0000 0000 000000
2018-07-23 03:50:58,-0.00,0.45,0.00,26.35,30.22,33.18,13.71,46.90,1006.83,2014.02,3226.80,2934.99,3375.60,600.16,583.90,13.68,0000 0000 0000 0000 000000
2018-07-23 03:55:59,-0.00,0.45,0.00,26.36,30.22,33.20,13.58,46.68,1006.85,2014.02,3226.91,2934.99,3375.55,599.72,583.40,13.73,0000 0000 0000 0000 000000
2018-07-23 04:01:01,-0.00,0.45,0.00,26.37,30.22,33.20,13.67,46.74,1006.85,2014.03,3226.95,2934.99,3375.73,600.13,583.69,13.78,0000 0000 0000 0000 000000
2018-07-23 04:06:02,0.02,0.45,0.00,26.38,30.23,33.18,13.63,46.91,1006.85,2014.05,3226.54,2934.98,3375.35,599.81,583.45,13.83,0000 0000 0000 0000 000000
2018-07-23 04:11:03,0.00,0.45,0.00,26.40,30.24,33.19,13.57,46.84,1006.86,2014.03,3226.02,2934.95,3375.02,599.89,583.31,13.88,0000 0000 0000 0000 000000
2018-07-23 04:16:04,0.01,0.45,0.00,26.40,30.25,33.18,13.62,47.00,1006.87,2014.04,3226.00,2934.81,3375.00,599.76,583.37,13.93,0000 0000 0000 0000 000000
2018-07-23 04:21:05,-0.01,0.45,0.00,26.42,30.25,33.18,13.64,47.07,1006.95,2014.03,3226.01,2934.82,3375.00,600.15,583.86,13.98,0000 0000 0000 0000 000000
2018-07-23 04:26:06,0.01,0.45,0.00,26.45,30.25,33.17,13.60,47.00,1007.07,2014.01,3226.00,2934.68,3375.00,600.01,583.58,14.03,0000 0000 0000 0000 000000
2018-07-23 04:31:07,0.01,0.45,0.00,26.46,30.25,33.17,13.66,47.02,1007.04,2014.00,3225.97,2934.15,3374.98,600.12,583.68,14.08,0000 0000 0000 0000 000000
2018-07-23 04:36:09,0.00,0.45,0.00,26.47,30.26,33.16,13.66,46.94,1007.28,2014.00,3225.97,2934.07,3374.98,599.98,583.73,14.13,0000 0000 0000 0000 000000
2018-07-23 04:41:10,0.00,0.45,0.00,26.47,30.27,33.18,13.65,47.17,1007.33,2014.00,3225.97,2934.05,3374.91,599.89,583.68,14.18,0000 0000 0000 0000 000000
2018-07-23 04:46:11,0.00,0.45,0.00,26.50,30.27,33.18,13.63,47.06,1007.33,2014.00,3225.84,2934.02,3374.64,599.97,583.79,14.23,0000 0000 0000 0000 000000
2018-07-23 04:51:13,0.01,0.46,0.00,26.51,30.27,33.21,13.72,47.01,1007.34,2014.00,3225.25,2934.00,3374.28,599.83,583.59,14.28,0000 0000 0000 0000 000000
2018-07-23 04:56:14,0.00,0.46,0.00,26.52,30.29,33.18,13.68,47.09,1007.34,2014.00,3225.10,2934.00,3374.10,599.84,583.43,14.33,0000 0000 0000 0000 000000
2018-07-23 05:01:15,-0.00,0.46,0.00,26.54,30.30,33.20,13.64,46.95,1007.35,2013.99,3225.09,2934.00,3374.05,600.00,583.50,14.38,0000 0000 0000 0000 000000
2018-07-23 05:06:16,0.00,0.46,0.00,26.55,30.30,33.21,13.65,46.94,1007.34,2013.98,3225.06,2934.00,3374.00,600.16,583.81,14.43,0000 0000 0000 0000 000000
2018-07-23 05:11:18,0.00,0.46,0.00,26.56,30.30,33.21,13.61,46.91,1007.34,2013.98,3225.00,2933.99,3374.00,599.49,583.09,14.48,0000 0000 0000 0000 000000
2018-07-23 05:16:19,-0.00,0.46,0.00,26.57,30.31,33.22,13.59,46.93,1007.34,2013.98,3225.00,2933.98,3374.00,599.92,583.53,14.54,0000 0000 0000 0000 000000
2018-07-23 05:21:20,0.00,0.46,0.00,26.59,30.32,33.20,13.68,47.00,1007.35,2013.96,3225.00,2933.97,3374.00,600.10,583.68,14.59,0000 0000 0000 0000 000000
2018-07-23 05:26:21,0.00,0.46,0.00,26.61,30.32,33.18,13.66,46.89,1007.41,2013.97,3224.98,2933.93,3373.98,600.09,583.63,14.64,0000 0000 0000 0000 000000
2018-07-23 05:31:23,0.00,0.46,0.00,26.62,30.34,33.22,13.66,47.11,1007.45,2013.97,3224.98,2933.92,3373.98,599.94,583.46,14.69,0000 0000 0000 0000 000000
2018-07-23 05:36:25,0.00,0.46,0.00,26.63,30.35,33.17,13.58,46.70,1007.52,2013.96,3224.99,2933.92,3373.98,599.76,583.26,14.74,0000 0000 0000 0000 000000
2018-07-23 05:41:26,-0.02,0.45,0.00,26.65,30.36,33.19,13.65,46.78,1007.60,2013.67,3224.99,2933.76,3373.88,599.67,583.21,14.79,0000 0000 0000 0000 000000
2018-07-23 05:46:27,0.02,0.46,0.00,26.67,30.37,33.19,13.64,46.82,1007.62,2013.60,3224.96,2933.35,3373.64,599.71,583.26,14.84,0000 0000 0000 0000 000000
2018-07-23 05:51:28,-0.01,0.45,0.00,26.70,30.39,33.19,13.64,46.89,1007.79,2013.48,3224.94,2933.21,3373.33,600.10,583.59,14.89,0000 0000 0000 0000 000000
2018-07-23 05:56:29,-0.02,0.45,0.00,26.72,30.40,33.22,13.62,46.83,1007.82,2013.32,3224.95,2933.17,3373.27,599.74,583.33,14.94,0000 0000 0000 0000 000000
2018-07-23 06:01:31,0.04,0.46,0.00,26.73,30.41,33.20,13.62,46.75,1007.82,2013.30,3224.31,2933.03,3373.04,599.72,583.13,14.99,0000 0000 0000 0000 000000
2018-07-23 06:06:32,0.00,0.46,0.00,26.75,30.42,33.20,13.70,46.92,1007.83,2013.39,3224.01,2933.00,3373.00,600.77,584.12,15.04,0000 0000 0000 0000 000000
2018-07-23 06:11:33,-0.00,0.46,0.00,26.77,30.43,33.22,13.59,46.88,1007.84,2013.45,3224.00,2933.00,3373.00,599.64,583.17,15.09,0000 0000 0000 0000 000000
2018-07-23 06:16:34,-0.01,0.46,0.00,26.79,30.45,33.21,13.60,46.87,1007.88,2013.31,3224.00,2932.99,3372.99,599.82,583.28,15.14,0000 0000 0000 0000 000000
2018-07-23 06:21:35,-0.01,0.45,0.00,26.80,30.46,33.23,13.72,47.07,1008.02,2013.11,3223.98,2932.97,3372.96,600.28,583.77,15.19,0000 0000 0000 0000 000000
2018-07-23 06:26:37,0.02,0.45,0.00,26.82,30.47,33.23,13.61,46.71,1008.14,2013.04,3223.87,2932.65,3372.46,599.86,583.40,15.24,0000 0000 0000 0000 000000
2018-07-23 06:31:38,0.02,0.46,0.00,26.85,30.48,33.28,13.62,46.65,1008.29,2013.00,3223.57,2932.16,3372.04,599.86,583.40,15.29,0000 0000 0000 0000 000000
2018-07-23 06:36:39,0.01,0.46,0.00,26.87,30.50,33.28,13.62,46.81,1008.31,2013.02,3223.11,2932.08,3372.01,600.08,583.63,15.34,0000 0000 0000 0000 000000
2018-07-23 06:41:40,0.00,0.46,0.00,26.89,30.50,33.27,13.62,46.84,1008.31,2013.00,3223.00,2932.00,3371.99,599.96,583.51,15.39,0000 0000 0000 0000 000000
2018-07-23 06:46:41,0.00,0.46,0.00,26.91,30.52,33.26,13.63,46.75,1008.31,2013.00,3222.99,2932.00,3371.98,599.38,582.86,15.44,0000 0000 0000 0000 000000
2018-07-23 06:51:42,0.00,0.46,0.00,26.92,30.52,33.27,13.66,46.65,1008.32,2013.00,3222.99,2932.00,3371.80,600.45,583.78,15.49,0000 0000 0000 0000 000000
2018-07-23 06:56:43,0.01,0.46,0.00,26.94,30.55,33.28,13.63,46.63,1008.32,2013.00,3222.84,2931.94,3371.20,599.98,583.37,15.54,0000 0000 0000 0000 000000
2018-07-23 07:01:45,0.02,0.46,0.00,26.96,30.55,33.28,13.59,46.49,1008.39,2012.99,3222.32,2931.55,3371.01,599.94,583.35,15.59,0000 0000 0000 0000 000000
2018-07-23 07:06:46,0.04,0.46,0.00,26.99,30.57,33.24,13.68,46.69,1008.52,2012.99,3221.72,2931.16,3370.63,600.42,583.84,15.64,0000 0000 0000 0000 000000
2018-07-23 07:11:47,0.01,0.46,0.00,27.02,30.58,33.24,13.72,46.84,1008.67,2012.97,3221.01,2930.81,3370.02,600.05,583.48,15.69,0000 0000 0000 0000 000000
2018-07-23 07:16:49,0.01,0.46,0.00,27.03,30.60,33.22,13.60,46.77,1008.80,2012.96,3220.99,2930.56,3370.00,599.91,583.39,15.74,0000 0000 0000 0000 000000
2018-07-23 07:21:50,0.00,0.46,0.00,27.07,30.61,33.19,13.56,46.62,1008.80,2012.93,3220.98,2930.31,3370.00,599.82,583.24,15.79,0000 0000 0000 0000 000000
2018-07-23 07:26:51,-0.01,0.46,0.00,27.10,30.63,33.19,13.62,46.42,1008.92,2012.85,3220.98,2930.06,3369.88,600.09,583.53,15.84,0000 0000 0000 0000 000000
2018-07-23 07:31:52,-0.01,0.46,0.00,27.13,30.65,33.20,13.58,46.63,1009.19,2012.62,3220.74,2930.01,3369.46,599.80,583.33,15.89,0000 0000 0000 0000 000000
2018-07-23 07:36:54,-0.01,0.46,0.00,27.17,30.66,33.21,13.59,46.65,1009.26,2012.29,3220.16,2930.00,3369.03,599.61,583.13,15.94,0000 0000 0000 0000 000000
2018-07-23 07:41:55,-0.02,0.46,0.00,27.20,30.68,33.23,13.56,46.39,1009.29,2012.07,3220.05,2930.00,3369.00,599.75,583.16,15.99,0000 0000 0000 0000 000000
2018-07-23 07:46:57,0.00,0.46,0.00,27.22,30.70,33.24,13.68,46.47,1009.30,2012.02,3220.00,2929.90,3368.98,600.16,583.53,16.04,0000 0000 0000 0000 000000
2018-07-23 07:51:58,0.02,0.46,0.00,27.22,30.71,33.30,13.57,46.36,1009.30,2012.00,3219.98,2929.33,3368.74,600.00,583.64,16.09,0000 0000 0000 0000 000000
2018-07-23 07:57:00,0.01,0.46,0.00,27.23,30.73,33.33,13.66,46.26,1009.38,2012.00,3219.84,2929.04,3368.12,600.33,583.78,16.14,0000 0000 0000 0000 000000
2018-07-23 08:02:00,0.00,0.46,0.00,27.25,30.75,33.33,13.68,46.24,1009.59,2012.00,3219.52,2929.00,3368.01,599.78,583.29,16.19,0000 0000 0000 0000 000000
2018-07-23 08:07:01,0.01,0.46,0.00,27.29,30.76,33.33,13.59,46.12,1009.75,2012.00,3219.09,2929.00,3368.00,600.02,583.34,16.24,0000 0000 0000 0000 000000
2018-07-23 08:12:03,0.00,0.46,0.00,27.31,30.78,33.34,13.59,46.30,1009.78,2012.00,3219.00,2928.98,3367.98,600.32,583.92,16.29,0000 0000 0000 0000 000000
2018-07-23 08:17:04,0.02,0.46,0.00,27.34,30.80,33.36,13.59,46.91,1009.78,2011.98,3218.96,2928.70,3367.33,599.75,583.20,16.34,0000 0000 0000 0000 000000
2018-07-23 08:22:05,0.02,0.47,0.00,27.37,30.81,33.37,13.55,46.92,1009.78,2011.97,3218.63,2928.13,3367.02,599.54,582.97,16.39,0000 0000 0000 0000 000000
2018-07-23 08:27:06,-0.01,0.47,0.00,27.39,30.83,33.37,13.64,46.83,1009.78,2011.86,3218.12,2928.00,3366.98,600.31,583.64,16.44,0000 0000 0000 0000 000000
2018-07-23 08:32:07,-0.02,0.46,0.00,27.41,30.85,33.39,13.61,46.81,1009.78,2011.54,3218.00,2927.99,3366.52,599.78,583.14,16.49,0000 0000 0000 0000 000000
2018-07-23 08:37:09,0.01,0.46,0.00,27.44,30.87,33.39,13.65,46.72,1009.80,2011.53,3217.98,2927.97,3366.03,600.22,583.45,16.54,0000 0000 0000 0000 000000
2018-07-23 08:42:10,-0.02,0.46,0.00,27.48,30.89,33.41,13.59,46.56,1009.93,2011.15,3217.81,2927.68,3366.01,599.98,583.19,16.59,0000 0000 0000 0000 000000
2018-07-23 08:47:11,0.01,0.46,0.00,27.49,30.91,33.42,13.59,46.67,1009.91,2011.02,3217.19,2927.11,3365.87,599.90,583.14,16.64,0000 0000 0000 0000 000000
2018-07-23 08:52:13,0.01,0.46,0.00,27.51,30.92,33.45,13.63,46.63,1010.12,2011.00,3217.00,2927.00,3365.37,599.99,583.29,16.69,0000 0000 0000 0000 000000
2018-07-23 08:57:14,0.00,0.47,0.00,27.52,30.95,33.47,13.58,46.54,1010.24,2011.00,3217.00,2927.00,3365.01,599.87,583.24,16.74,0000 0000 0000 0000 000000
2018-07-23 09:02:15,0.01,0.47,0.00,27.54,30.97,33.50,13.60,46.54,1010.26,2010.99,3216.89,2926.92,3365.00,600.06,583.45,16.79,0000 0000 0000 0000 000000
2018-07-23 09:07:17,0.02,0.47,0.00,27.55,30.99,33.53,13.66,46.68,1010.27,2010.97,3216.40,2926.42,3364.84,600.07,583.43,16.84,0000 0000 0000 0000 000000
2018-07-23 09:12:18,0.02,0.47,0.00,27.56,31.00,33.55,13.65,46.73,1010.28,2010.93,3216.03,2926.04,3364.09,600.05,583.45,16.89,0000 0000 0000 0000 000000
2018-07-23 09:17:19,-0.01,0.47,0.00,27.59,31.02,33.56,13.68,46.68,1010.29,2010.84,3215.99,2925.98,3363.98,600.34,583.63,16.94,0000 0000 0000 0000 000000
2018-07-23 09:22:21,0.01,0.47,0.00,27.62,31.05,33.58,13.57,46.63,1010.35,2010.53,3215.34,2925.55,3363.31,600.07,583.36,16.99,0000 0000 0000 0000 000000
2018-07-23 09:27:22,-0.01,0.47,0.00,27.66,31.07,33.60,13.63,46.54,1010.58,2010.17,3215.01,2925.04,3363.00,600.02,583.30,17.04,0000 0000 0000 0000 000000
2018-07-23 09:32:23,-0.01,0.47,0.00,27.68,31.09,33.60,13.67,46.55,1010.73,2010.05,3215.00,2925.00,3362.87,600.25,583.62,17.09,0000 0000 0000 0000 000000
2018-07-23 09:37:24,0.01,0.47,0.00,27.72,31.11,33.62,13.60,46.46,1010.76,2010.01,3214.81,2924.97,3362.23,599.79,583.06,17.14,0000 0000 0000 0000 000000
2018-07-23 09:42:26,0.02,0.47,0.00,27.75,31.14,33.65,13.66,46.48,1010.75,2010.00,3214.25,2924.57,3362.01,600.05,583.29,17.19,0000 0000 0000 0000 000000
2018-07-23 09:47:27,0.01,0.47,0.00,27.79,31.16,33.66,13.53,46.33,1010.76,2010.00,3214.00,2924.04,3361.80,599.95,583.12,17.25,0000 0000 0000 0000 000000
2018-07-23 09:52:28,0.05,0.47,0.00,27.83,31.19,33.68,13.54,46.27,1010.76,2010.00,3213.50,2923.53,3360.76,599.87,582.98,17.30,0000 0000 0000 0000 000000
2018-07-23 09:57:30,0.01,0.47,0.00,27.87,31.22,33.72,13.49,46.28,1010.76,2009.97,3213.00,2923.00,3360.02,599.71,582.76,17.35,0000 0000 0000 0000 000000
2018-07-23 10:02:31,0.00,0.47,0.00,27.90,31.25,33.76,13.59,46.34,1010.77,2009.92,3212.82,2922.87,3359.93,599.91,582.91,17.40,0000 0000 0000 0000 000000
2018-07-23 10:07:32,0.02,0.47,0.00,27.93,31.28,33.78,13.65,46.19,1010.79,2009.63,3212.08,2922.12,3359.17,599.95,582.87,17.45,0000 0000 0000 0000 000000
2018-07-23 10:12:34,-0.03,0.47,0.00,27.96,31.31,33.81,13.59,46.26,1011.10,2009.26,3211.98,2921.99,3358.99,600.38,583.41,17.50,0000 0000 0000 0000 000000
2018-07-23 10:17:35,0.02,0.47,0.00,27.97,31.34,33.84,13.60,46.16,1011.23,2009.06,3211.37,2921.86,3358.45,599.99,583.09,17.55,0000 0000 0000 0000 000000
2018-07-23 10:22:36,0.02,0.47,0.00,27.98,31.37,33.86,13.55,46.17,1011.23,2009.02,3211.02,2921.24,3358.05,599.86,582.98,17.60,0000 0000 0000 0000 000000
2018-07-23 10:27:38,0.00,0.47,0.00,28.00,31.40,33.87,13.53,45.97,1011.25,2009.00,3211.00,2921.01,3357.98,599.74,582.77,17.65,0000 0000 0000 0000 000000
2018-07-23 10:32:39,0.00,0.48,0.00,28.05,31.43,33.90,13.68,46.33,1011.26,2009.00,3210.88,2921.00,3357.75,600.39,583.33,17.70,0000 0000 0000 0000 000000
2018-07-23 10:37:40,0.03,0.48,0.00,28.08,31.46,33.96,13.62,46.06,1011.30,2008.97,3210.15,2920.62,3357.07,599.66,582.55,17.75,0000 0000 0000 0000 000000
2018-07-23 10:42:41,0.01,0.48,0.00,28.12,31.49,34.01,13.57,45.83,1011.51,2008.96,3210.00,2920.13,3356.99,599.99,582.86,17.80,0000 0000 0000 0000 000000
2018-07-23 10:47:42,-0.01,0.48,0.00,28.17,31.52,34.09,13.56,45.88,1011.37,2008.85,3209.99,2920.01,3356.88,600.24,583.15,17.85,0000 0000 0000 0000 000000
2018-07-23 10:52:44,-0.03,0.48,0.00,28.22,31.56,34.15,13.55,46.02,1011.40,2008.34,3209.93,2919.99,3356.23,599.66,582.38,17.90,0000 0000 0000 0000 000000
2018-07-23 10:57:45,-0.01,0.48,0.00,28.25,31.59,34.18,13.60,45.86,1011.69,2008.10,3209.62,2919.98,3356.01,600.08,582.90,17.95,0000 0000 0000 0000 000000
2018-07-23 11:02:46,0.01,0.47,0.00,28.24,31.62,34.24,13.61,45.83,1011.73,2008.01,3209.11,2919.76,3356.00,599.79,582.63,18.00,0000 0000 0000 0000 000000
2018-07-23 11:07:47,0.01,0.48,0.00,28.19,31.65,34.28,13.58,45.83,1011.73,2008.00,3209.00,2919.33,3355.94,600.03,582.85,18.05,0000 0000 0000 0000 000000
2018-07-23 11:12:48,0.01,0.48,0.00,28.16,31.67,34.32,13.53,45.83,1011.74,2008.00,3208.97,2919.02,3355.41,599.71,582.72,18.10,0000 0000 0000 0000 000000
2018-07-23 11:17:50,0.01,0.48,0.00,28.17,31.69,34.28,13.58,45.77,1011.80,2008.00,3208.62,2919.00,3355.10,599.82,582.79,18.15,0000 0000 0000 0000 000000
2018-07-23 11:22:51,0.00,0.48,0.00,28.19,31.71,34.30,13.57,45.73,1012.09,2008.00,3208.04,2918.98,3355.00,600.09,583.27,18.20,0000 0000 0000 0000 000000
2018-07-23 11:27:52,0.00,0.48,0.00,28.16,31.72,34.34,13.60,45.86,1012.17,2008.00,3208.00,2918.82,3354.99,599.90,583.21,18.25,0000 0000 0000 0000 000000
2018-07-23 11:32:54,0.02,0.48,0.00,28.11,31.72,34.38,13.57,45.88,1012.22,2007.99,3207.86,2918.30,3354.78,599.84,583.23,18.30,0000 0000 0000 0000 000000
2018-07-23 11:37:55,0.02,0.48,0.00,28.05,31.74,34.46,13.61,45.77,1012.22,2007.99,3207.31,2918.02,3354.22,599.80,583.36,18.35,0000 0000 0000 0000 000000
2018-07-23 11:42:57,0.00,0.48,0.00,27.98,31.75,34.69,13.63,45.89,1012.22,2007.99,3207.03,2918.01,3354.10,600.47,584.16,18.40,0000 0000 0000 0000 000000
2018-07-23 11:47:58,0.00,0.48,0.00,27.90,31.75,34.81,13.61,45.88,1012.23,2007.99,3207.00,2918.01,3354.05,599.60,583.32,18.45,0000 0000 0000 0000 000000
2018-07-23 11:53:00,0.00,0.48,0.00,27.83,31.74,34.86,13.59,46.02,1012.23,2007.99,3207.00,2918.00,3354.04,599.73,583.67,18.50,0000 0000 0000 0000 000000
2018-07-23 11:58:01,0.00,0.48,0.00,27.76,31.72,34.85,13.67,45.91,1012.38,2007.99,3207.00,2918.01,3354.10,599.86,584.01,18.55,0000 0000 0000 0000 000000
2018-07-23 12:03:02,0.00,0.48,0.00,27.70,31.72,34.81,13.62,45.87,1012.46,2007.99,3206.99,2918.00,3354.16,599.76,584.10,18.60,0000 0000 0000 0000 000000
2018-07-23 12:08:04,-0.00,0.48,0.00,27.65,31.70,34.77,13.63,45.95,1012.56,2008.01,3206.99,2918.01,3354.26,599.78,584.25,18.65,0000 0000 0000 0000 000000
2018-07-23 12:13:05,0.01,0.48,0.00,27.60,31.69,34.74,13.68,45.94,1012.58,2008.03,3206.98,2918.00,3354.22,599.95,584.48,18.70,0000 0000 0000 0000 000000
2018-07-23 12:18:06,0.00,0.48,0.00,27.56,31.67,34.72,13.69,45.91,1012.51,2008.03,3206.97,2918.00,3354.14,599.96,584.57,18.75,0000 0000 0000 0000 000000
2018-07-23 12:23:07,0.00,0.48,0.00,27.51,31.65,34.68,13.66,45.98,1012.51,2008.07,3206.99,2918.01,3354.29,600.25,584.95,18.80,0000 0000 0000 0000 000000
2018-07-23 12:28:09,0.00,0.48,0.00,27.48,31.63,34.67,13.71,46.09,1012.45,2008.25,3206.99,2918.08,3354.71,599.60,584.37,18.85,0000 0000 0000 0000 000000
2018-07-23 12:33:10,0.03,0.48,0.00,27.45,31.61,34.63,13.73,46.01,1012.57,2008.51,3206.99,2918.23,3354.92,600.34,585.22,18.90,0000 0000 0000 0000 000000
2018-07-23 12:38:11,-0.00,0.48,0.00,27.41,31.59,34.59,13.74,46.07,1012.69,2008.74,3206.99,2918.49,3354.96,600.20,585.19,18.95,0000 0000 0000 0000 000000
2018-07-23 12:43:12,-0.00,0.48,0.00,27.36,31.56,34.56,13.70,46.08,1012.70,2008.88,3207.01,2918.82,3354.99,600.25,585.40,19.00,0000 0000 0000 0000 000000
2018-07-23 12:48:14,0.00,0.48,0.00,27.35,31.54,34.55,13.66,46.12,1012.70,2008.95,3207.05,2918.96,3354.99,600.04,585.30,19.05,0000 0000 0000 0000 000000
2018-07-23 12:53:15,-0.00,0.48,0.00,27.31,31.52,34.52,13.63,46.17,1012.71,2008.98,3207.32,2918.98,3355.01,599.78,585.15,19.10,0000 0000 0000 0000 000000
2018-07-23 12:58:17,-0.00,0.48,0.00,27.28,31.49,34.49,13.75,46.27,1012.72,2008.99,3207.61,2918.99,3355.05,600.08,585.40,19.15,0000 0000 0000 0000 000000